Погода в Удельных Уты

Россия / Брянская область     52°51′44″N   33°57′53″E
темп.,
°C
ветер,
м/с
пор.,
м/с
влажн.,
%
обл.,
%
осадки,
мм/ч
давл.,
гПа
погр.,
м
6 марта, сб
сб600:00−6зсз3492100 0.0 101773
03:00−9зсз369187 0.0 1018113
06:00−10сз379630 0.0 1018145
09:00−9сз379119 0.0 1020206
12:00−4сз46852 0.0 1021653
15:00−3зсз56727 0.0 10201160
18:00−6з35820 0.1 1020101
21:00−9з47900 0.1 1020116
7 марта, вс
вс700:00−10зюз47910 0.0 1019140
03:00−9юз613890 0.0 1017283
06:00−7юз7168394 0.0 1013503
09:00−4юз10188397 0.0 1009887
12:00−1зюз111890100 0.2 10041225
15:000зюз122094100 0.7 10021321
18:00−1сз81493100 1.8 1003973
21:00−5з5138885 2.0 1005453
8 марта, пн
пн800:00−6зюз616770 0.0 1004423
03:00−4з716850 0.0 1004796
06:00−9зсз5138036 0.1 1005470
09:00−9зсз6128318 0.1 1008626
12:00−6зсз58815 0.0 1009702
15:00−4зсз69722 0.0 10101074
18:00−6зсз498233 0.0 1011308
21:00−9зсз349066 0.0 101370
9 марта, вт
вт900:00−10зсз33934 0.0 101440
03:00−10сз239646 0.1 101548
06:00−11ссз3496100 0.1 1016124
09:00−10ссз3693100 0.1 1017280
12:00−8ссз568599 0.0 1019751
15:00−7ссз567899 0.1 1020935
18:00−9ссз368683 0.0 1021171
21:00−12ссз349042 0.0 102361
10 марта, ср
ср1000:00−14сз23900 0.0 102427
03:00−13юз339120 0.0 102446
06:00−12юз489092 0.0 1023222
09:00−9зюз6128396 0.0 1022468
12:00−4з61177100 0.0 1022732
15:00−3з6975100 0.0 1021928
18:00−4з4984100 0.0 1022294
21:00−7зсз3488100 0.0 102381